Aérodrome :
LOGIN :

S'inscrire | Disclaimer

   EN    FR    IT 

 










Légende :    VFR   VFR Marginal   IFR   IFR Intensif   IFR Très Intensif
Visi : 
Plafond : 
>= 8 km
>= 3000ft
5 à 8 km
1000 à 3000 ft
1500m à 5 km
500 à 1000 ft
800 à 1500m
200 à 500 ft
< 800m
< 200 ft
Symboles :   Orages  Brouillard  Fortes neiges  Fortes précipitations  Vent > 20 kt
SIGMETs :   Divers  Orages  Givrage  Turbulence  Onde Orograph.  Cendres Volcan.







- Altitude de l'aérodrome : 39 ft
- Code IATA : CTA


LICC - Catania Fontanarossa

DERNIER METAR :
  • 280950Z 07006KT CAVOK 34/11 Q1011

METARs EXPIRÉS :
  • 280920Z 09005KT 010V140 CAVOK 33/13 Q1011
  • 280850Z 11006KT 070V140 CAVOK 32/15 Q1011
  • 280820Z 08009KT CAVOK 31/15 Q1010
  • 280750Z 08007KT CAVOK 31/16 Q1011
  • 280720Z 09009KT CAVOK 30/15 Q1010

TAF TAF LICC
Valide du 28 à 06h jusqu'au 29 à 06h UTC


280500Z 2806/2906 26010KT CAVOK
BECMG 2708/2710 09012KT
BECMG 2819/2821 23007KT
Pas de NOTAMs connus pour ce terrain.



MET'MAP, la Météo Aéronautique d'un coup d'oeil ! - Copyright ORBIFLY Décembre 2007 - Disclaimer

ORBIFLY MET'MAP TEAM :

Programmation & Développement : Alexandra Zaïnal
Conception & Développement : Baudouin d'Aumeries
Co-Programmation & Développement : Marc-Olivier Méhu
Soutien technique & logistique : Manuel Goepfert

Contact : metmap@orbifly.com




SOURCES & CREDITS :

   NOAA